Flag for Spain Weather past 2 weeks in Barcelona, Barcelona, Spain

Now
39 °F

Passing clouds.


Feels Like: 30 °F
Forecast: 38 / 55 °F
Wind: 17 mph from Northwest

Location: Barcelona Airport

Current Time: Dec 25, 2014 at 4:44:35 AM

Latest Report: Dec 25, 2014 at 4:00 AM


Visibility: N/A

Pressure: 30.39 "Hg

Humidity: 75%

Dew point: 32 °F

Location of BarcelonaLocation

Historic Weather in Barcelona — Graph

°F

Barcelona temperature yesterday

Maximum temperature yesterday: 54 °F (at 2:00 PM)
Minimum temperature yesterday: 39 °F (at 8:30 AM)
Average temperature yesterday: 45 °F

Past Weeks' High & Low Weather Summary

 TemperatureHumidityPressure
High64 °F (Dec 18, 3:00 PM)94% (Dec 13, 12:00 AM)30.51 "Hg (Dec 13, 12:00 AM)
Low39 °F (Dec 23, 7:30 AM)41% (Dec 10, 12:30 PM)29.89 "Hg (Dec 16, 2:30 PM)
Average50 °F76%30.22 "Hg
* Reported Dec 10 3:00 AM — Dec 25 3:00 AM, Barcelona, Weather by CustomWeather, © 2014

Note: Actual official high and low records may vary slightly from our data, if they occured in-between our weather recording intervals... More about our weather records

Advertising

Barcelona weather history for previous 24 hours

 ConditionsComfort  
Time TempWeatherWind HumidityBarometerVisibility
3:00 AM
Dec 25
39 °FPassing clouds.17 mph75%30.39 "HgN/A
2:30 AM39 °FPassing clouds.17 mph75%30.39 "HgN/A
2:00 AM41 °FPassing clouds.17 mph70%30.39 "HgN/A
1:30 AM39 °FPassing clouds.17 mph75%30.39 "HgN/A
1:00 AM41 °FPassing clouds.16 mph70%30.39 "HgN/A
12:30 AM41 °FClear.16 mph70%30.39 "Hg10 mi
12:00 AM41 °FClear.14 mph70%30.39 "Hg10 mi
11:30 PM
Dec 24
41 °FClear.15 mph70%30.39 "Hg10 mi
11:00 PM41 °FClear.14 mph70%30.39 "Hg10 mi
10:30 PM41 °FClear.15 mph70%30.39 "Hg10 mi
10:00 PM41 °FClear.14 mph70%30.39 "Hg10 mi
9:30 PM43 °FClear.14 mph71%30.39 "Hg10 mi
9:00 PM43 °FPassing clouds.15 mph71%30.39 "HgN/A
8:30 PM45 °FPassing clouds.15 mph66%30.39 "HgN/A
8:00 PM45 °FPassing clouds.13 mph66%30.39 "HgN/A
7:30 PM46 °FPassing clouds.13 mph62%30.36 "HgN/A
7:00 PM46 °FPassing clouds.12 mph66%30.36 "HgN/A
6:30 PM48 °FPassing clouds.12 mph62%30.36 "HgN/A
6:00 PM48 °FPassing clouds.12 mph62%30.36 "HgN/A
5:30 PM50 °FPassing clouds.10 mph58%30.36 "HgN/A
5:00 PM52 °FPassing clouds.9 mph54%30.36 "HgN/A
4:30 PM54 °FPassing clouds.7 mph54%30.33 "HgN/A
4:00 PM54 °FPassing clouds.7 mph54%30.33 "HgN/A
3:30 PM54 °FPassing clouds.6 mph51%30.33 "HgN/A
3:00 PM54 °FPassing clouds.8 mph54%30.33 "HgN/A
2:30 PM54 °FPassing clouds.9 mph51%30.36 "HgN/A
2:00 PM54 °FPassing clouds.9 mph51%30.36 "HgN/A
1:30 PM52 °FPassing clouds.9 mph58%30.36 "HgN/A
1:00 PM50 °FPassing clouds.12 mph58%30.39 "HgN/A
12:30 PM48 °FScattered clouds.14 mph62%30.39 "HgN/A
12:00 PM46 °FScattered clouds.16 mph62%30.39 "HgN/A
11:30 AM45 °FScattered clouds.16 mph66%30.42 "HgN/A
11:00 AM45 °FScattered clouds.16 mph66%30.42 "HgN/A
10:30 AM43 °FPassing clouds.17 mph66%30.39 "HgN/A
10:00 AM41 °FPartly sunny.17 mph70%30.39 "HgN/A
9:30 AM39 °FPartly sunny.16 mph75%30.39 "HgN/A
9:00 AM39 °FPartly sunny.16 mph75%30.39 "HgN/A
8:30 AM39 °FPartly sunny.16 mph75%30.36 "HgN/A
8:00 AM41 °FPassing clouds.14 mph70%30.36 "HgN/A
7:30 AM41 °FPassing clouds.13 mph70%30.36 "HgN/A
7:00 AM41 °FPassing clouds.13 mph76%30.36 "HgN/A
6:30 AM41 °FPassing clouds.14 mph76%30.36 "HgN/A
6:00 AM41 °FPassing clouds.14 mph81%30.33 "HgN/A
5:30 AM41 °FPassing clouds.10 mph81%30.33 "HgN/A
5:00 AM41 °FPassing clouds.8 mph81%30.33 "HgN/A
4:30 AM41 °FPassing clouds.9 mph87%30.36 "HgN/A
4:00 AM41 °FPassing clouds.9 mph87%30.36 "HgN/A
Weather by CustomWeather, © 2014

See weather overviewHow to use our weather pages